Location: Pinhead Observatory
(34.4473°N, 118.1985°W)
Time: 23:59:28
(UTC-07:00)

CZ-4C R/B - Visible Passes

Search period start: 21 July 2017 00:00
Search period end: 31 July 2017 00:00
Orbit: 713 x 1289 km, 63.4° (Epoch: 21 July)

Date Brightness Start Highest point End Pass type
(mag) Time Alt. Az. Time Alt. Az. Time Alt. Az.
21 Jul 5.2 00:50:59 10° N 00:55:14 16° NE 00:59:42 10° ENE visible
21 Jul 3.1 02:37:38 10° NNW 02:44:59 69° ENE 02:51:22 17° SE visible
21 Jul 3.9 04:27:27 10° WNW 04:33:12 24° WSW 04:36:13 19° SW visible
22 Jul 4.4 01:23:18 10° N 01:29:34 30° NE 01:35:34 13° ESE visible
22 Jul 2.9 03:11:14 10° NW 03:18:33 61° WSW 03:20:34 48° SSW visible
23 Jul 5.2 00:10:06 10° N 00:13:31 14° NE 00:17:04 10° ENE visible
23 Jul 3.3 01:56:17 10° NNW 02:03:31 58° NE 02:05:58 42° ESE visible
23 Jul 3.8 03:45:35 10° NW 03:51:02 28° W 03:51:02 28° W visible
24 Jul 4.5 00:42:07 10° N 00:47:59 26° NE 00:51:52 18° E visible
24 Jul 2.8 02:29:44 10° NW 02:36:57 73° WSW 02:36:57 73° WSW visible
24 Jul 5.2 23:29:33 10° NNE 23:31:47 11° NE 23:34:04 10° NE visible
25 Jul 3.6 01:14:57 10° NNW 01:22:01 49° NE 01:23:10 46° E visible
25 Jul 3.9 03:03:50 10° NW 03:08:16 30° W 03:08:16 30° W visible
26 Jul 4.7 00:00:57 10° N 00:06:22 22° NE 00:09:35 17° ENE visible
26 Jul 3.0 01:48:17 10° NNW 01:54:42 71° NW 01:54:42 71° NW visible
26 Jul 4.9 03:39:30 10° WNW 03:39:49 11° WNW 03:39:49 11° WNW visible
27 Jul 3.7 00:33:40 10° NNW 00:40:29 41° NE 00:41:17 40° ENE visible
27 Jul 3.9 02:22:11 10° NW 02:26:25 32° WNW 02:26:25 32° WNW visible
27 Jul 4.8 23:19:52 10° N 23:24:43 19° NE 23:27:59 15° ENE visible
28 Jul 3.1 01:06:52 10° NNW 01:13:08 67° N 01:13:08 67° N visible
28 Jul 4.8 02:57:14 10° WNW 02:58:15 13° WNW 02:58:15 13° WNW visible
28 Jul 3.9 23:52:24 10° NNW 23:58:57 35° NE 23:59:55 34° ENE visible
29 Jul 3.9 01:40:36 10° NW 01:45:03 37° WNW 01:45:03 37° WNW visible
29 Jul 4.9 22:38:52 10° N 22:43:02 16° NE 22:46:48 11° ENE visible
30 Jul 3.2 00:25:29 10° NNW 00:31:56 63° NNE 00:31:56 63° NNE visible
30 Jul 4.7 02:15:14 10° WNW 02:17:05 16° WNW 02:17:05 16° WNW visible
30 Jul 4.1 23:11:10 10° N 23:17:23 30° NE 23:18:53 28° ENE visible
